www.pogodaiklimat.ru

Погода и климат >> Архив погоды >> Канада >> Eureka Climate


ПОГОДА в Eureka Climate

  • Прогноз погоды в Eureka Climate
  • Монитор погоды в Eureka Climate
  • Климат города

АРХИВ ПОГОДЫ в Eureka Climate

Время (UTC), дата Ветер
(напр.,м/с)
 
Видим.   Явления Облачность Т
(С)
Тd
(С)
f
(%)
Тe
(С)
Тes
(С)
Комфортность P
(гПа)
Po
(гПа)
Тmin
(С)
Tmax
(С)
R
(мм)
S
(см)
03 21.03 СВ 2 н/о н/о -35.9 -39.6 69 -45 -45 опасность
обморожения
1014.8 1013.4 0.2
06 21.03 СВ 2 н/о н/о -36.5 -40.2 68 -45 -45 опасность
обморожения
1014.4 1013.0 -38.2 -34.4 0.2
09 21.03 В 2 н/о н/о -36.8 -40.5 68 -46 -46 опасность
обморожения
1013.9 1012.5
12 21.03 СВ 2 н/о {осадки} н/о -35.9 -39.7 68 -45 -45 опасность
обморожения
1013.5 1012.1 -37.2 -34.4 0.2 10
15 21.03 В 2 н/о н/о -37.1 -40.9 68 -46 -46 опасность
обморожения
1012.7 1011.3
18 21.03 ЮВ 2 н/о н/о -36.6 -40.6 66 -44 -44 опасность
обморожения
1011.7 1010.3 -37.8 -35.1
21 21.03 В 2 н/о н/о -36.4 -40.1 68 -45 -45 опасность
обморожения
1011.3 1009.9 0.4
00 22.03 В 3 н/о н/о -37.4 -41.2 67 -48 -48 опасность
обморожения
1011.0 1009.6 -37.8 -35.9 0.4
03 22.03 СВ 2 н/о н/о -37.5 -41.2 68 -45 -45 опасность
обморожения
1010.8 1009.4
06 22.03 В 2 н/о н/о -38.8 -42.7 66 -46 -46 опасность
обморожения
1010.8 1009.4 -39.4 -35.1
09 22.03 В 3 н/о н/о -40.0 -44.0 65 -52 -52 опасность
обморожения
1011.1 1009.7
12 22.03 В 2 н/о н/о -40.7 -44.9 64 -50 -50 опасность
обморожения
1011.5 1010.1 -40.7 -35.1 11
15 22.03 В 1 н/о {осадки} н/о -39.2 -43.1 66 -44 -44 опасность
обморожения
1011.2 1009.8 0.2
18 22.03 ЮВ 2 н/о {осадки} н/о -39.0 -43.3 64 -46 -46 опасность
обморожения
1010.9 1009.5 -41.3 -37.8 0.2
21 22.03 ЮВ 1 н/о н/о -38.4 -42.7 64 -44 -44 опасность
обморожения
1010.5 1009.1
00 23.03 В 1 н/о н/о -39.0 -43.0 66 -44 -44 опасность
обморожения
1010.1 1008.7 -41.3 -37.4
03 23.03 В 2 н/о н/о -40.1 -44.1 65 -48 -48 опасность
обморожения
1009.4 1008.0
06 23.03 В 1 н/о н/о -40.5 -44.6 65 -46 -46 опасность
обморожения
1009.0 1007.6 -41.3 -37.4
09 23.03 ЮВ 2 н/о н/о -41.3 -45.5 64 -49 -49 опасность
обморожения
1009.3 1007.9
12 23.03 В 3 н/о н/о -41.6 -45.9 63 -53 -53 опасность
обморожения
1009.5 1008.1 -41.7 -37.4 11
15 23.03 В 1 н/о н/о -38.9 -42.7 67 -44 -44 опасность
обморожения
1009.8 1008.4
18 23.03 ЮВ 3 н/о н/о -39.4 -43.6 64 -50 -50 опасность
обморожения
1010.2 1008.8 -41.7 -37.7
21 23.03 ЮВ 2 н/о н/о -38.6 -42.9 64 -48 -48 опасность
обморожения
1011.2 1009.8
00 24.03 В 1 н/о н/о -39.2 -43.2 66 -44 -44 опасность
обморожения
1012.8 1011.4 -41.7 -37.5
03 24.03 В 1 н/о н/о -39.6 -43.6 65 -45 -45 опасность
обморожения
1013.8 1012.4
06 24.03 В 2 н/о н/о -39.8 -43.7 66 -47 -47 опасность
обморожения
1014.7 1013.3 -41.7 -37.5
09 24.03 В 2 н/о н/о -41.5 -45.7 64 -51 -51 опасность
обморожения
1015.8 1014.4
12 24.03 В 4 н/о н/о -38.9 -42.9 66 -52 -52 опасность
обморожения
1016.3 1014.9 -41.8 -37.5 11
15 24.03 В 4 н/о н/о -37.8 -41.9 65 -51 -51 опасность
обморожения
1015.8 1014.4
18 24.03 В 6 н/о н/о -37.0 -41.2 65 -53 -53 опасность
обморожения
1014.4 1013.0 -41.8 -37.0
21 24.03 В 5 н/о н/о -36.3 -40.4 66 -50 -50 опасность
обморожения
1013.3 1011.9
00 25.03 В 7 н/о н/о -37.2 -41.1 67 -54 -54 опасность
обморожения
1012.6 1011.2 -41.8 -36.1
03 25.03 В 5 н/о н/о -36.7 -40.5 68 -50 -50 опасность
обморожения
1011.1 1009.7
06 25.03 В 4 н/о н/о -37.5 -41.4 67 -50 -50 опасность
обморожения
1009.9 1008.5 -41.8 -36.1
09 25.03 СВ 3 н/о н/о -36.7 -40.6 67 -48 -48 опасность
обморожения
1009.7 1008.3
12 25.03 В 4 н/о н/о -36.2 -40.1 67 -48 -48 опасность
обморожения
1009.8 1008.4 -38.1 -36.1 10
15 25.03 СВ 3 н/о н/о -33.9 -37.8 68 -43 -43 опасность
обморожения
1009.8 1008.4
18 25.03 В 2 н/о н/о -35.0 -39.1 66 -43 -43 опасность
обморожения
1010.5 1009.1 -38.1 -32.4
21 25.03 ЮВ 2 н/о н/о -32.8 -36.3 71 -39 -39 опасность
обморожения
1011.9 1010.5
00 26.03 В 2 н/о н/о -30.4 -33.7 73 -38 -38 опасность
обморожения
1012.7 1011.3 -38.1 -30.3
03 26.03 ЮВ 3 н/о н/о -31.9 -35.3 72 -41 -41 опасность
обморожения
1012.9 1011.5
06 26.03 ЮВ 2 н/о н/о -30.1 -33.1 75 -36 -36 опасность
обморожения
1013.2 1011.8 -38.1 -29.3
09 26.03 В 1 н/о н/о -25.6 -28.0 80 -29 -29 1013.6 1012.2
12 26.03 ЮВ 7 н/о н/о -21.0 -23.0 84 -33 -33 опасность
обморожения
1013.7 1012.3 -32.0 -29.3 11
15 26.03 ЮВ 8 н/о н/о -20.0 -22.0 84 -32 -32 опасность
обморожения
1013.7 1012.3 0.3
18 26.03 ЮВ 7 н/о {осадки} н/о -18.0 -20.2 83 -29 -29 1013.6 1012.2 -35.0 -17.8 0.3
21 26.03 ЮВ 7 н/о н/о -18.1 -19.9 86 -29 -29 1014.4 1013.0 0.2
00 27.03 ЮВ 8 н/о н/о -18.0 -19.8 86 -30 -30 1014.2 1012.8 -30.4 -17.6 0.2
03 27.03 В 7 н/о н/о -18.5 -20.0 88 -30 -30 1014.8 1013.4
06 27.03 Ю 11 н/о н/о -18.2 -19.7 88 -32 -32 опасность
обморожения
1014.0 1012.6 -30.4 -17.6
09 27.03 Ю 13 н/о н/о -18.2 -19.8 87 -33 -33 опасность
обморожения
1015.3 1013.9
12 27.03 Ю 13 н/о н/о -19.9 -21.7 86 -35 -35 опасность
обморожения
1016.9 1015.5 -19.9 -17.6 0.2 10
15 27.03 Ю 11 н/о н/о -20.5 -22.3 85 -35 -35 опасность
обморожения
1020.0 1018.6
18 27.03 Ю 9 н/о н/о -20.3 -22.0 86 -34 -34 опасность
обморожения
1021.7 1020.3 -21.4 -17.7
21 27.03 Ю 8 н/о н/о -19.5 -21.3 86 -32 -32 опасность
обморожения
1022.9 1021.5
00 28.03 ЮВ 6 н/о н/о -19.2 -21.1 85 -30 -30 1023.3 1021.9 -21.4 -18.5

 

Местоположение метеостанции Eureka Climate (Канада): широта 79.99 долгота -85.93 высота над уровнем моря 10 м.

В архиве по умолчанию представлена погода в Eureka Climate за последнюю неделю. Архивные данные за месяц целиком и за предыдущие месяцы, начиная с января 2011 года, Вы можете получить, выбрав интересующий диапазон дат из раскрывающегося списка и нажав кнопку "Ввод!".

Внимание! Время в таблицах - всемирное. Для получения местного времени необходимо прибавить поправку, которая в Eureka Climate равна -6 ч.

Смотрите также архив погоды в соседних городах и на ближайших метеорологических станциях:

Погода в Eureka (Канада) (1 км)
Погода в Chris Hadfield (Канада) (343 км)
Погода в Isachsen (aut) (Канада) (383 км)
Погода в Mittarfik Qaanaaq (Гренландия) (453 км)
Погода в Kitsissut (Гренландия) (472 км)
Погода в Alert Climate (Канада) (482 км)
Погода в Resolute Cs (Канада) (624 км)
Погода в Resolute Airport (Канада) (624 км)
Погода в Arctic Bay (Канада) (778 км)
Погода в Pond Inlet Airport (Канада) (836 км)

Пояснения к столбцам:

Ветер - указаны скорость ветра в м/с - средняя за 10 мин, порывы в срок и между сроками (в фигурных скобках) и направление, откуда дует ветер: С - северный, СВ - северо-восточный, В - восточный, ЮВ - юго-восточный, Ю - южный, ЮЗ - юго-западный, З - западный, СЗ - северо-западный.
Видимость - горизонтальная дальность видимости в метрах или километрах. При видимости от 1 до 10 км при отсутствии осадков обычно наблюдается дымка, при ухудшении видимости до 1 км и менее - туман. В сухую погоду видимость может ухудшаться дымом, пылью или мглою.
Явления - указаны атмосферные явления, наблюдавшиеся в срок или в последний час перед сроком; фигурными скобками обозначены явления, наблюдавшиеся между сроками (за 1-3 часа до срока); квадратными скобками обозначены град или гололедные отложения с указанием их диаметра в мм.
Облачность - указаны через наклонную черту общая и нижняя облачность в баллах и высота нижней границы облаков в метрах; квадратными скобками обозначены формы облаков: Ci - перистые, Cs - перисто-слоистые, Cc - перисто-кучевые, Ac - высококучевые, As - высокослоистые, Sc - слоисто-кучевые, Ns - слоисто-дождевые, Cu - кучевые, Cb - кучево-дождевые. Подробнее классификацию облаков см. в Атласе облаков (PDF).
T - Температура воздуха - температура, измеренная на высоте 2 м над землей.
Td - Температура точки росы - температура, при понижении до которой содержащийся в воздухе водяной пар достигнет насыщения.
f - Относительная влажность воздуха - влажноcть воздуха, измеренная на высоте 2 м над землей.
Te - Эффективная температура - температура, которую ощущает одетый по сезону человек в тени. Характеристика душности погоды. При расчете учитывается влияние влажности воздуха и скорости ветра на теплоощущения человека.
Tes - Эффективная температура на солнце - температура, которую ощущает человек, с поправкой на солнечный нагрев. Характеристика знойности погоды. Зависит от высоты солнца над горизонтом, облачности и скорости ветра. Ночью, в пасмурную погоду, а также при ветре 12 м/с и более поправка равна нулю.
P - Атмосферное давление - приведенное к уровню моря атмосферное давление.
Po - Атмосферное давление - измеренное на уровне метеостанции атмосферное давление.
Tmin - Минимальная температура - минимум температуры воздуха на высоте 2 м над землей.
Tmax - Максимальная температура - максимум температуры воздуха на высоте 2 м над землей.
R - Количество осадков - Количество выпавших осадков, мм. При наведении курсора мыши на число - период времени, за который выпало указанное количество осадков.
S - Снежный покров - Высота снежного покрова, см. При наведении курсора мыши на число - состояние снежного покрова и степень покрытия местности в баллах.